Terminal Aerodrome Forecast
Issued by NWS

Home | Current Version | Previous Version | Text Only | Print | Product List | Glossary On
Versions: 1 2 3 4 5 6 7 8 9 10 11 12 13 14 15 16 17 18 19 20 21 22 23 24 25
000
FTUS44 KOUN 250520
TAFGAG
TAF
KGAG 250520Z 2506/2606 17013KT P6SM SCT250
     FM251400 21018G26KT P6SM SCT250
     FM260100 18014KT P6SM SCT250=

USA.gov is the U.S. government's official web portal to all federal, state and local government web resources and services.